Year,Month,Day,Hour,Minute,Value (Times are PST for temperature in C)
2017,05,22,00,00,15.10
2017,05,22,00,01,15.10
2017,05,22,00,02,15.00
2017,05,22,00,03,15.00
2017,05,22,00,04,15.00
2017,05,22,00,05,15.00
2017,05,22,00,06,15.00
2017,05,22,00,07,15.00
2017,05,22,00,08,15.00
2017,05,22,00,09,14.90
2017,05,22,00,10,14.90
2017,05,22,00,11,14.90
2017,05,22,00,12,14.90
2017,05,22,00,13,14.90
2017,05,22,00,14,14.90
2017,05,22,00,15,14.90
2017,05,22,00,16,14.90
2017,05,22,00,17,14.90
2017,05,22,00,18,14.90
2017,05,22,00,19,14.90
2017,05,22,00,20,14.90
2017,05,22,00,21,14.90
2017,05,22,00,22,14.90
2017,05,22,00,23,14.90
2017,05,22,00,24,14.90
2017,05,22,00,25,14.90
2017,05,22,00,26,14.90
2017,05,22,00,27,14.90
2017,05,22,00,28,14.90
2017,05,22,00,29,14.90
2017,05,22,00,30,14.80
2017,05,22,00,31,14.80
2017,05,22,00,32,14.80
2017,05,22,00,33,14.80
2017,05,22,00,34,14.80
2017,05,22,00,35,14.80
2017,05,22,00,36,14.80
2017,05,22,00,37,14.80
2017,05,22,00,38,14.80
2017,05,22,00,39,14.70
2017,05,22,00,40,14.70
2017,05,22,00,41,14.70
2017,05,22,00,42,14.60
2017,05,22,00,43,14.60
2017,05,22,00,44,14.60
2017,05,22,00,45,14.60
2017,05,22,00,46,14.50
2017,05,22,00,47,14.50
2017,05,22,00,48,14.50
2017,05,22,00,49,14.40
2017,05,22,00,50,14.40
2017,05,22,00,51,14.40
2017,05,22,00,52,14.30
2017,05,22,00,53,14.30
2017,05,22,00,54,14.30
2017,05,22,00,55,14.30
2017,05,22,00,56,14.30
2017,05,22,00,57,14.30
2017,05,22,00,58,14.20
2017,05,22,00,59,14.20
2017,05,22,01,00,14.20
2017,05,22,01,01,14.20
2017,05,22,01,02,14.20
2017,05,22,01,03,14.20
2017,05,22,01,04,14.10
2017,05,22,01,05,14.20
2017,05,22,01,06,14.20
2017,05,22,01,07,14.10
2017,05,22,01,08,14.10
2017,05,22,01,09,14.10
2017,05,22,01,10,14.10
2017,05,22,01,11,14.10
2017,05,22,01,12,14.10
2017,05,22,01,13,14.10
2017,05,22,01,14,14.10
2017,05,22,01,15,14.10
2017,05,22,01,16,14.10
2017,05,22,01,17,14.00
2017,05,22,01,18,14.00
2017,05,22,01,19,14.00
2017,05,22,01,20,14.00
2017,05,22,01,21,14.00
2017,05,22,01,22,14.00
2017,05,22,01,23,14.00
2017,05,22,01,24,14.00
2017,05,22,01,25,14.00
2017,05,22,01,26,14.00
2017,05,22,01,27,13.90
2017,05,22,01,28,14.00
2017,05,22,01,29,14.00
2017,05,22,01,30,14.00
2017,05,22,01,31,14.00
2017,05,22,01,32,14.00
2017,05,22,01,33,14.00
2017,05,22,01,34,14.00
2017,05,22,01,35,14.00
2017,05,22,01,36,14.00
2017,05,22,01,37,14.00
2017,05,22,01,38,14.00
2017,05,22,01,39,14.00
2017,05,22,01,40,14.00
2017,05,22,01,41,14.00
2017,05,22,01,42,14.00
2017,05,22,01,43,13.90
2017,05,22,01,44,13.90
2017,05,22,01,45,13.90
2017,05,22,01,46,13.90
2017,05,22,01,47,13.90
2017,05,22,01,48,13.90
2017,05,22,01,49,13.80
2017,05,22,01,50,13.80
2017,05,22,01,51,13.80
2017,05,22,01,52,13.80
2017,05,22,01,53,13.80
2017,05,22,01,54,13.80
2017,05,22,01,55,13.80
2017,05,22,01,56,13.80
2017,05,22,01,57,13.80
2017,05,22,01,58,13.80
2017,05,22,01,59,13.80
2017,05,22,02,00,13.80
2017,05,22,02,01,13.70
2017,05,22,02,02,13.70
2017,05,22,02,03,13.70
2017,05,22,02,04,13.70
2017,05,22,02,05,13.70
2017,05,22,02,06,13.70
2017,05,22,02,07,13.70
2017,05,22,02,08,13.70
2017,05,22,02,09,13.70
2017,05,22,02,10,13.70
2017,05,22,02,11,13.70
2017,05,22,02,12,13.70
2017,05,22,02,13,13.70
2017,05,22,02,14,13.70
2017,05,22,02,15,13.70
2017,05,22,02,16,13.70
2017,05,22,02,17,13.60
2017,05,22,02,18,13.60
2017,05,22,02,19,13.60
2017,05,22,02,20,13.60
2017,05,22,02,21,13.60
2017,05,22,02,22,13.60
2017,05,22,02,23,13.60
2017,05,22,02,24,13.60
2017,05,22,02,25,13.60
2017,05,22,02,26,13.60
2017,05,22,02,27,13.60
2017,05,22,02,28,13.60
2017,05,22,02,29,13.60
2017,05,22,02,30,13.60
2017,05,22,02,31,13.60
2017,05,22,02,32,13.60
2017,05,22,02,33,13.50
2017,05,22,02,34,13.50
2017,05,22,02,35,13.50
2017,05,22,02,36,13.50
2017,05,22,02,37,13.50
2017,05,22,02,38,13.40
2017,05,22,02,39,13.40
2017,05,22,02,40,13.40
2017,05,22,02,41,13.40
2017,05,22,02,42,13.40
2017,05,22,02,43,13.40
2017,05,22,02,44,13.40
2017,05,22,02,45,13.40
2017,05,22,02,46,13.30
2017,05,22,02,47,13.30
2017,05,22,02,48,13.30
2017,05,22,02,49,13.30
2017,05,22,02,50,13.30
2017,05,22,02,51,13.30
2017,05,22,02,52,13.30
2017,05,22,02,53,13.30
2017,05,22,02,54,13.20
2017,05,22,02,55,13.20
2017,05,22,02,56,13.20
2017,05,22,02,57,13.20
2017,05,22,02,58,13.20
2017,05,22,02,59,13.20
2017,05,22,03,00,13.20
2017,05,22,03,01,13.10
2017,05,22,03,02,13.10
2017,05,22,03,03,13.10
2017,05,22,03,04,13.10
2017,05,22,03,05,13.10
2017,05,22,03,06,13.10
2017,05,22,03,07,13.10
2017,05,22,03,08,13.10
2017,05,22,03,09,13.10
2017,05,22,03,10,13.10
2017,05,22,03,11,13.10
2017,05,22,03,12,13.10
2017,05,22,03,13,13.10
2017,05,22,03,14,13.10
2017,05,22,03,15,13.10
2017,05,22,03,16,13.10
2017,05,22,03,17,13.10
2017,05,22,03,18,13.10
2017,05,22,03,19,13.10
2017,05,22,03,20,13.10
2017,05,22,03,21,13.10
2017,05,22,03,22,13.10
2017,05,22,03,23,13.10
2017,05,22,03,24,13.20
2017,05,22,03,25,13.20
2017,05,22,03,26,13.20
2017,05,22,03,27,13.20
2017,05,22,03,28,13.20
2017,05,22,03,29,13.20
2017,05,22,03,30,13.20
2017,05,22,03,31,13.10
2017,05,22,03,32,13.10
2017,05,22,03,33,13.10
2017,05,22,03,34,13.10
2017,05,22,03,35,13.10
2017,05,22,03,36,13.10
2017,05,22,03,37,13.10
2017,05,22,03,38,13.10
2017,05,22,03,39,13.10
2017,05,22,03,40,13.10
2017,05,22,03,41,13.10
2017,05,22,03,42,13.10
2017,05,22,03,43,13.10
2017,05,22,03,44,13.10
2017,05,22,03,45,13.10
2017,05,22,03,46,13.10
2017,05,22,03,47,13.10
2017,05,22,03,48,13.00
2017,05,22,03,49,13.00
2017,05,22,03,50,13.00
2017,05,22,03,51,12.90
2017,05,22,03,52,12.90
2017,05,22,03,53,12.90
2017,05,22,03,54,12.90
2017,05,22,03,55,12.90
2017,05,22,03,56,12.90
2017,05,22,03,57,12.90
2017,05,22,03,58,12.90
2017,05,22,03,59,12.90
2017,05,22,04,00,12.90
2017,05,22,04,01,12.80
2017,05,22,04,02,12.80
2017,05,22,04,03,12.80
2017,05,22,04,04,12.80
2017,05,22,04,05,12.80
2017,05,22,04,06,12.80
2017,05,22,04,07,12.80
2017,05,22,04,08,12.80
2017,05,22,04,09,12.80
2017,05,22,04,10,12.80
2017,05,22,04,11,12.80
2017,05,22,04,12,12.80
2017,05,22,04,13,12.80
2017,05,22,04,14,12.80
2017,05,22,04,15,12.80
2017,05,22,04,16,12.80
2017,05,22,04,17,12.80
2017,05,22,04,18,12.80
2017,05,22,04,19,12.80
2017,05,22,04,20,12.80
2017,05,22,04,21,12.80
2017,05,22,04,22,12.80
2017,05,22,04,23,12.80
2017,05,22,04,24,12.80
2017,05,22,04,25,12.70
2017,05,22,04,26,12.70
2017,05,22,04,27,12.70
2017,05,22,04,28,12.70
2017,05,22,04,29,12.70
2017,05,22,04,30,12.70
2017,05,22,04,31,12.70
2017,05,22,04,32,12.70
2017,05,22,04,33,12.70
2017,05,22,04,34,12.70
2017,05,22,04,35,12.70
2017,05,22,04,36,12.70
2017,05,22,04,37,12.60
2017,05,22,04,38,12.60
2017,05,22,04,39,12.60
2017,05,22,04,40,12.60
2017,05,22,04,41,12.60
2017,05,22,04,42,12.60
2017,05,22,04,43,12.60
2017,05,22,04,44,12.50
2017,05,22,04,45,12.50
2017,05,22,04,46,12.50
2017,05,22,04,47,12.50
2017,05,22,04,48,12.50
2017,05,22,04,49,12.50
2017,05,22,04,50,12.40
2017,05,22,04,51,12.40
2017,05,22,04,52,12.40
2017,05,22,04,53,12.40
2017,05,22,04,54,12.40
2017,05,22,04,55,12.40
2017,05,22,04,56,12.40
2017,05,22,04,57,12.40
2017,05,22,04,58,12.40
2017,05,22,04,59,12.40
2017,05,22,05,00,12.40
2017,05,22,05,01,12.40
2017,05,22,05,02,12.40
2017,05,22,05,03,12.40
2017,05,22,05,04,12.40
2017,05,22,05,05,12.40
2017,05,22,05,06,12.40
2017,05,22,05,07,12.40
2017,05,22,05,08,12.40
2017,05,22,05,09,12.30
2017,05,22,05,10,12.40
2017,05,22,05,11,12.40
2017,05,22,05,12,12.40
2017,05,22,05,13,12.40
2017,05,22,05,14,12.40
2017,05,22,05,15,12.40
2017,05,22,05,16,12.40
2017,05,22,05,17,12.30
2017,05,22,05,18,12.30
2017,05,22,05,19,12.30
2017,05,22,05,20,12.30
2017,05,22,05,21,12.30
2017,05,22,05,22,12.30
2017,05,22,05,23,12.30
2017,05,22,05,24,12.30
2017,05,22,05,25,12.20
2017,05,22,05,26,12.20
2017,05,22,05,27,12.20
2017,05,22,05,28,12.20
2017,05,22,05,29,12.20
2017,05,22,05,30,12.10
2017,05,22,05,31,12.10
2017,05,22,05,32,12.10
2017,05,22,05,33,12.10
2017,05,22,05,34,12.10
2017,05,22,05,35,12.10
2017,05,22,05,36,12.10
2017,05,22,05,37,12.10
2017,05,22,05,38,12.10
2017,05,22,05,39,12.10
2017,05,22,05,40,12.00
2017,05,22,05,41,12.00
2017,05,22,05,42,12.00
2017,05,22,05,43,12.00
2017,05,22,05,44,12.00
2017,05,22,05,45,12.00
2017,05,22,05,46,12.00
2017,05,22,05,47,12.00
2017,05,22,05,48,11.90
2017,05,22,05,49,11.90
2017,05,22,05,50,11.90
2017,05,22,05,51,11.90
2017,05,22,05,52,11.90
2017,05,22,05,53,12.00
2017,05,22,05,54,12.00
2017,05,22,05,55,12.00
2017,05,22,05,56,12.00
2017,05,22,05,57,12.00
2017,05,22,05,58,12.00
2017,05,22,05,59,12.00
2017,05,22,06,00,12.10
2017,05,22,06,01,12.10
2017,05,22,06,02,12.10
2017,05,22,06,03,12.10
2017,05,22,06,04,12.10
2017,05,22,06,05,12.10
2017,05,22,06,06,12.10
2017,05,22,06,07,12.10
2017,05,22,06,08,12.10
2017,05,22,06,09,12.20
2017,05,22,06,10,12.20
2017,05,22,06,11,12.20
2017,05,22,06,12,12.20
2017,05,22,06,13,12.20
2017,05,22,06,14,12.20
2017,05,22,06,15,12.20
2017,05,22,06,16,12.30
2017,05,22,06,17,12.30
2017,05,22,06,18,12.30
2017,05,22,06,19,12.30
2017,05,22,06,20,12.30
2017,05,22,06,21,12.40
2017,05,22,06,22,12.40
2017,05,22,06,23,12.40
2017,05,22,06,24,12.40
2017,05,22,06,25,12.50
2017,05,22,06,26,12.50
2017,05,22,06,27,12.60
2017,05,22,06,28,12.60
2017,05,22,06,29,12.60
2017,05,22,06,30,12.70
2017,05,22,06,31,12.70
2017,05,22,06,32,12.80
2017,05,22,06,33,12.80
2017,05,22,06,34,12.90
2017,05,22,06,35,12.90
2017,05,22,06,36,13.00
2017,05,22,06,37,13.10
2017,05,22,06,38,13.10
2017,05,22,06,39,13.20
2017,05,22,06,40,13.20
2017,05,22,06,41,13.30
2017,05,22,06,42,13.30
2017,05,22,06,43,13.30
2017,05,22,06,44,13.30
2017,05,22,06,45,13.30
2017,05,22,06,46,13.30
2017,05,22,06,47,13.40
2017,05,22,06,48,13.40
2017,05,22,06,49,13.40
2017,05,22,06,50,13.40
2017,05,22,06,51,13.50
2017,05,22,06,52,13.50
2017,05,22,06,53,13.60
2017,05,22,06,54,13.60
2017,05,22,06,55,13.70
2017,05,22,06,56,13.70
2017,05,22,06,57,13.70
2017,05,22,06,58,13.70
2017,05,22,06,59,13.70
2017,05,22,07,00,13.70
2017,05,22,07,01,13.70
2017,05,22,07,02,13.80
2017,05,22,07,03,13.80
2017,05,22,07,04,13.80
2017,05,22,07,05,13.80
2017,05,22,07,06,13.80
2017,05,22,07,07,13.80
2017,05,22,07,08,13.80
2017,05,22,07,09,13.80
2017,05,22,07,10,13.80
2017,05,22,07,11,13.80
2017,05,22,07,12,13.80
2017,05,22,07,13,13.80
2017,05,22,07,14,13.80
2017,05,22,07,15,13.80
2017,05,22,07,16,13.80
2017,05,22,07,17,13.90
2017,05,22,07,18,13.90
2017,05,22,07,19,13.90
2017,05,22,07,20,14.00
2017,05,22,07,21,14.00
2017,05,22,07,22,14.10
2017,05,22,07,23,14.10
2017,05,22,07,24,14.20
2017,05,22,07,25,14.20
2017,05,22,07,26,14.30
2017,05,22,07,27,14.30
2017,05,22,07,28,14.40
2017,05,22,07,29,14.40
2017,05,22,07,30,14.50
2017,05,22,07,31,14.50
2017,05,22,07,32,14.50
2017,05,22,07,33,14.60
2017,05,22,07,34,14.60
2017,05,22,07,35,14.60
2017,05,22,07,36,14.60
2017,05,22,07,37,14.60
2017,05,22,07,38,14.60
2017,05,22,07,39,14.70
2017,05,22,07,40,14.70
2017,05,22,07,41,14.70
2017,05,22,07,42,14.80
2017,05,22,07,43,14.80
2017,05,22,07,44,14.90
2017,05,22,07,45,15.00
2017,05,22,07,46,15.00
2017,05,22,07,47,15.10
2017,05,22,07,48,15.20
2017,05,22,07,49,15.30
2017,05,22,07,50,15.40
2017,05,22,07,51,15.50
2017,05,22,07,52,15.60
2017,05,22,07,53,15.60
2017,05,22,07,54,15.70
2017,05,22,07,55,15.80
2017,05,22,07,56,15.90
2017,05,22,07,57,15.90
2017,05,22,07,58,16.00
2017,05,22,07,59,16.10
2017,05,22,08,00,16.20
2017,05,22,08,01,16.30
2017,05,22,08,02,16.40
2017,05,22,08,03,16.50
2017,05,22,08,04,16.60
2017,05,22,08,05,16.70
2017,05,22,08,06,16.80
2017,05,22,08,07,16.80
2017,05,22,08,08,16.90
2017,05,22,08,09,17.00
2017,05,22,08,10,17.10
2017,05,22,08,11,17.20
2017,05,22,08,12,17.30
2017,05,22,08,13,17.30
2017,05,22,08,14,17.40
2017,05,22,08,15,17.40
2017,05,22,08,16,17.50
2017,05,22,08,17,17.60
2017,05,22,08,18,17.60
2017,05,22,08,19,17.70
2017,05,22,08,20,17.70
2017,05,22,08,21,17.80
2017,05,22,08,22,17.80
2017,05,22,08,23,17.90
2017,05,22,08,24,17.90
2017,05,22,08,25,18.00
2017,05,22,08,26,18.00
2017,05,22,08,27,18.10
2017,05,22,08,28,18.10
2017,05,22,08,29,18.10
2017,05,22,08,30,18.20
2017,05,22,08,31,18.20
2017,05,22,08,32,18.20
2017,05,22,08,33,18.30
2017,05,22,08,34,18.30
2017,05,22,08,35,18.30
2017,05,22,08,36,18.40
2017,05,22,08,37,18.40
2017,05,22,08,38,18.40
2017,05,22,08,39,18.50
2017,05,22,08,40,18.50
2017,05,22,08,41,18.60
2017,05,22,08,42,18.70
2017,05,22,08,43,18.70
2017,05,22,08,44,18.70
2017,05,22,08,45,18.80
2017,05,22,08,46,18.80
2017,05,22,08,47,18.80
2017,05,22,08,48,18.90
2017,05,22,08,49,18.90
2017,05,22,08,50,19.00
2017,05,22,08,51,19.00
2017,05,22,08,52,19.00
2017,05,22,08,53,19.10
2017,05,22,08,54,19.10
2017,05,22,08,55,19.10
2017,05,22,08,56,19.10
2017,05,22,08,57,19.20
2017,05,22,08,58,19.20
2017,05,22,08,59,19.20
2017,05,22,09,00,19.20
2017,05,22,09,01,19.20
2017,05,22,09,02,19.30
2017,05,22,09,03,19.30
2017,05,22,09,04,19.30
2017,05,22,09,05,19.30
2017,05,22,09,06,19.40
2017,05,22,09,07,19.40
2017,05,22,09,08,19.40
2017,05,22,09,09,19.50
2017,05,22,09,10,19.60
2017,05,22,09,11,19.70
2017,05,22,09,12,19.70
2017,05,22,09,13,19.80
2017,05,22,09,14,19.80
2017,05,22,09,15,19.80
2017,05,22,09,16,19.90
2017,05,22,09,17,19.90
2017,05,22,09,18,19.90
2017,05,22,09,19,19.90
2017,05,22,09,20,19.80
2017,05,22,09,21,19.80
2017,05,22,09,22,19.70
2017,05,22,09,23,19.70
2017,05,22,09,24,19.70
2017,05,22,09,25,19.60
2017,05,22,09,26,19.60
2017,05,22,09,27,19.50
2017,05,22,09,28,19.40
2017,05,22,09,29,19.30
2017,05,22,09,30,19.20
2017,05,22,09,31,19.20
2017,05,22,09,32,19.10
2017,05,22,09,33,19.00
2017,05,22,09,34,19.00
2017,05,22,09,35,19.00
2017,05,22,09,36,18.90
2017,05,22,09,37,18.90
2017,05,22,09,38,18.80
2017,05,22,09,39,18.80
2017,05,22,09,40,18.80
2017,05,22,09,41,18.80
2017,05,22,09,42,18.80
2017,05,22,09,43,18.80
2017,05,22,09,44,18.80
2017,05,22,09,45,18.90
2017,05,22,09,46,18.90
2017,05,22,09,47,18.90
2017,05,22,09,48,18.90
2017,05,22,09,49,18.90
2017,05,22,09,50,19.00
2017,05,22,09,51,19.00
2017,05,22,09,52,19.10
2017,05,22,09,53,19.10
2017,05,22,09,54,19.10
2017,05,22,09,55,19.20
2017,05,22,09,56,19.20
2017,05,22,09,57,19.30
2017,05,22,09,58,19.30
2017,05,22,09,59,19.30
2017,05,22,10,00,19.30
2017,05,22,10,01,19.40
2017,05,22,10,02,19.40
2017,05,22,10,03,19.40
2017,05,22,10,04,19.50
2017,05,22,10,05,19.60
2017,05,22,10,06,19.60
2017,05,22,10,07,19.60
2017,05,22,10,08,19.70
2017,05,22,10,09,19.70
2017,05,22,10,10,19.80
2017,05,22,10,11,19.80
2017,05,22,10,12,19.90
2017,05,22,10,13,20.00
2017,05,22,10,14,20.10
2017,05,22,10,15,20.10
2017,05,22,10,16,20.10
2017,05,22,10,17,20.20
2017,05,22,10,18,20.20
2017,05,22,10,19,20.20
2017,05,22,10,20,20.20
2017,05,22,10,21,20.30
2017,05,22,10,22,20.30
2017,05,22,10,23,20.40
2017,05,22,10,24,20.50
2017,05,22,10,25,20.50
2017,05,22,10,26,20.60
2017,05,22,10,27,20.60
2017,05,22,10,28,20.60
2017,05,22,10,29,20.60
2017,05,22,10,30,20.60
2017,05,22,10,31,20.60
2017,05,22,10,32,20.60
2017,05,22,10,33,20.70
2017,05,22,10,34,20.70
2017,05,22,10,35,20.70
2017,05,22,10,36,20.70
2017,05,22,10,37,20.70
2017,05,22,10,38,20.70
2017,05,22,10,39,20.70
2017,05,22,10,40,20.80
2017,05,22,10,41,20.80
2017,05,22,10,42,20.80
2017,05,22,10,43,20.80
2017,05,22,10,44,20.90
2017,05,22,10,45,20.90
2017,05,22,10,46,20.90
2017,05,22,10,47,20.90
2017,05,22,10,48,20.90
2017,05,22,10,49,20.90
2017,05,22,10,50,21.00
2017,05,22,10,51,21.00
2017,05,22,10,52,21.10
2017,05,22,10,53,21.10
2017,05,22,10,54,21.10
2017,05,22,10,55,21.10
2017,05,22,10,56,21.10
2017,05,22,10,57,21.10
2017,05,22,10,58,21.10
2017,05,22,10,59,21.10
2017,05,22,11,00,21.10
2017,05,22,11,01,21.20
2017,05,22,11,02,21.20
2017,05,22,11,03,21.30
2017,05,22,11,04,21.30
2017,05,22,11,05,21.30
2017,05,22,11,06,21.30
2017,05,22,11,07,21.30
2017,05,22,11,08,21.30
2017,05,22,11,09,21.30
2017,05,22,11,10,21.30
2017,05,22,11,11,21.30
2017,05,22,11,12,21.30
2017,05,22,11,13,21.30
2017,05,22,11,14,21.40
2017,05,22,11,15,21.60
2017,05,22,11,16,21.60
2017,05,22,11,17,21.60
2017,05,22,11,18,21.60
2017,05,22,11,19,21.60
2017,05,22,11,20,21.70
2017,05,22,11,21,21.80
2017,05,22,11,22,21.80
2017,05,22,11,23,21.80
2017,05,22,11,24,21.80
2017,05,22,11,25,21.90
2017,05,22,11,26,21.90
2017,05,22,11,27,21.90
2017,05,22,11,28,21.90
2017,05,22,11,29,21.90
2017,05,22,11,30,22.00
2017,05,22,11,31,22.00
2017,05,22,11,32,22.10
2017,05,22,11,33,22.20
2017,05,22,11,34,22.20
2017,05,22,11,35,22.20
2017,05,22,11,36,22.20
2017,05,22,11,37,22.30
2017,05,22,11,38,22.40
2017,05,22,11,39,22.40
2017,05,22,11,40,22.40
2017,05,22,11,41,22.50
2017,05,22,11,42,22.60
2017,05,22,11,43,22.60
2017,05,22,11,44,22.60
2017,05,22,11,45,22.60
2017,05,22,11,46,22.60
2017,05,22,11,47,22.60
2017,05,22,11,48,22.60
2017,05,22,11,49,22.60
2017,05,22,11,50,22.70
2017,05,22,11,51,22.70
2017,05,22,11,52,22.60
2017,05,22,11,53,22.70
2017,05,22,11,54,22.70
2017,05,22,11,55,22.70
2017,05,22,11,56,22.80
2017,05,22,11,57,22.80
2017,05,22,11,58,22.90
2017,05,22,11,59,22.90
2017,05,22,12,00,23.00
2017,05,22,12,01,23.00
2017,05,22,12,02,23.10
2017,05,22,12,03,23.00
2017,05,22,12,04,23.00
2017,05,22,12,05,23.00
2017,05,22,12,06,23.00
2017,05,22,12,07,23.00
2017,05,22,12,08,23.00
2017,05,22,12,09,23.00
2017,05,22,12,10,23.00
2017,05,22,12,11,23.10
2017,05,22,12,12,23.10
2017,05,22,12,13,23.10
2017,05,22,12,14,23.00
2017,05,22,12,15,23.00
2017,05,22,12,16,23.00
2017,05,22,12,17,23.10
2017,05,22,12,18,23.00
2017,05,22,12,19,23.10
2017,05,22,12,20,23.00
2017,05,22,12,21,23.00
2017,05,22,12,22,23.00
2017,05,22,12,23,23.00
2017,05,22,12,24,23.00
2017,05,22,12,25,23.00
2017,05,22,12,26,23.00
2017,05,22,12,27,23.00
2017,05,22,12,28,23.00
2017,05,22,12,29,23.00
2017,05,22,12,30,23.10
2017,05,22,12,31,23.10
2017,05,22,12,32,23.10
2017,05,22,12,33,23.20
2017,05,22,12,34,23.30
2017,05,22,12,35,23.40
2017,05,22,12,36,23.50
2017,05,22,12,37,23.60
2017,05,22,12,38,23.60
2017,05,22,12,39,23.60
2017,05,22,12,40,23.60
2017,05,22,12,41,23.60
2017,05,22,12,42,23.60
2017,05,22,12,43,23.60
2017,05,22,12,44,23.60
2017,05,22,12,45,23.60
2017,05,22,12,46,23.70
2017,05,22,12,47,23.70
2017,05,22,12,48,23.70
2017,05,22,12,49,23.70
2017,05,22,12,50,23.70
2017,05,22,12,51,23.70
2017,05,22,12,52,23.70
2017,05,22,12,53,23.60
2017,05,22,12,54,23.60
2017,05,22,12,55,23.60
2017,05,22,12,56,23.60
2017,05,22,12,57,23.60
2017,05,22,12,58,23.60
2017,05,22,12,59,23.60
2017,05,22,13,00,23.50
2017,05,22,13,01,23.50
2017,05,22,13,02,23.50
2017,05,22,13,03,23.50
2017,05,22,13,04,23.50
2017,05,22,13,05,23.60
2017,05,22,13,06,23.60
2017,05,22,13,07,23.60
2017,05,22,13,08,23.70
2017,05,22,13,09,23.70
2017,05,22,13,10,23.70
2017,05,22,13,11,23.70
2017,05,22,13,12,23.60
2017,05,22,13,13,23.60
2017,05,22,13,14,23.60
2017,05,22,13,15,23.70
2017,05,22,13,16,23.70
2017,05,22,13,17,23.90
2017,05,22,13,18,24.00
2017,05,22,13,19,24.10
2017,05,22,13,20,24.10
2017,05,22,13,21,24.20
2017,05,22,13,22,24.20
2017,05,22,13,23,24.20
2017,05,22,13,24,24.20
2017,05,22,13,25,24.20
2017,05,22,13,26,24.20
2017,05,22,13,27,24.20
2017,05,22,13,28,24.20
2017,05,22,13,29,24.10
2017,05,22,13,30,24.10
2017,05,22,13,31,24.10
2017,05,22,13,32,24.20
2017,05,22,13,33,24.30
2017,05,22,13,34,24.40
2017,05,22,13,35,24.50
2017,05,22,13,36,24.50
2017,05,22,13,37,24.50
2017,05,22,13,38,24.50
2017,05,22,13,39,24.50
2017,05,22,13,40,24.50
2017,05,22,13,41,24.50
2017,05,22,13,42,24.60
2017,05,22,13,43,24.60
2017,05,22,13,44,24.70
2017,05,22,13,45,24.70
2017,05,22,13,46,24.70
2017,05,22,13,47,24.60
2017,05,22,13,48,24.60
2017,05,22,13,49,24.60
2017,05,22,13,50,24.60
2017,05,22,13,51,24.60
2017,05,22,13,52,24.60
2017,05,22,13,53,24.60
2017,05,22,13,54,24.60
2017,05,22,13,55,24.60
2017,05,22,13,56,24.60
2017,05,22,13,57,24.60
2017,05,22,13,58,24.70
2017,05,22,13,59,24.70
2017,05,22,14,00,24.70
2017,05,22,14,01,24.60
2017,05,22,14,02,24.60
2017,05,22,14,03,24.60
2017,05,22,14,04,24.60
2017,05,22,14,05,24.60
2017,05,22,14,06,24.70
2017,05,22,14,07,24.80
2017,05,22,14,08,24.80
2017,05,22,14,09,24.80
2017,05,22,14,10,24.70
2017,05,22,14,11,24.70
2017,05,22,14,12,24.80
2017,05,22,14,13,24.80
2017,05,22,14,14,24.70
2017,05,22,14,15,24.70
2017,05,22,14,16,24.70
2017,05,22,14,17,24.70
2017,05,22,14,18,24.70
2017,05,22,14,19,24.80
2017,05,22,14,20,24.90
2017,05,22,14,21,24.90
2017,05,22,14,22,25.00
2017,05,22,14,23,25.00
2017,05,22,14,24,25.00
2017,05,22,14,25,24.90
2017,05,22,14,26,24.90
2017,05,22,14,27,24.90
2017,05,22,14,28,24.90
2017,05,22,14,29,25.00
2017,05,22,14,30,25.10
2017,05,22,14,31,25.10
2017,05,22,14,32,25.20
2017,05,22,14,33,25.30
2017,05,22,14,34,25.40
2017,05,22,14,35,25.50
2017,05,22,14,36,25.60
2017,05,22,14,37,25.70
2017,05,22,14,38,25.70
2017,05,22,14,39,25.70
2017,05,22,14,40,25.60
2017,05,22,14,41,25.60
2017,05,22,14,42,25.60
2017,05,22,14,43,25.60
2017,05,22,14,44,25.60
2017,05,22,14,45,25.60
2017,05,22,14,46,25.60
2017,05,22,14,47,25.60
2017,05,22,14,48,25.60
2017,05,22,14,49,25.60
2017,05,22,14,50,25.60
2017,05,22,14,51,25.60
2017,05,22,14,52,25.60
2017,05,22,14,53,25.60
2017,05,22,14,54,25.60
2017,05,22,14,55,25.60
2017,05,22,14,56,25.60
2017,05,22,14,57,25.60
2017,05,22,14,58,25.50
2017,05,22,14,59,25.50
2017,05,22,15,00,25.60
2017,05,22,15,01,25.60
2017,05,22,15,02,25.60
2017,05,22,15,03,25.60
2017,05,22,15,04,25.60
2017,05,22,15,05,25.60
2017,05,22,15,06,25.60
2017,05,22,15,07,25.60
2017,05,22,15,08,25.50
2017,05,22,15,09,25.50
2017,05,22,15,10,25.40
2017,05,22,15,11,25.40
2017,05,22,15,12,25.50
2017,05,22,15,13,25.50
2017,05,22,15,14,25.60
2017,05,22,15,15,25.70
2017,05,22,15,16,25.80
2017,05,22,15,17,25.90
2017,05,22,15,18,26.00
2017,05,22,15,19,26.00
2017,05,22,15,20,26.00
2017,05,22,15,21,26.00
2017,05,22,15,22,25.90
2017,05,22,15,23,25.80
2017,05,22,15,24,25.60
2017,05,22,15,25,25.40
2017,05,22,15,26,25.20
2017,05,22,15,27,25.10
2017,05,22,15,28,25.00
2017,05,22,15,29,24.90
2017,05,22,15,30,24.90
2017,05,22,15,31,25.00
2017,05,22,15,32,25.10
2017,05,22,15,33,25.10
2017,05,22,15,34,25.00
2017,05,22,15,35,24.90
2017,05,22,15,36,24.80
2017,05,22,15,37,24.40
2017,05,22,15,38,24.10
2017,05,22,15,39,23.80
2017,05,22,15,40,23.50
2017,05,22,15,41,23.30
2017,05,22,15,42,23.20
2017,05,22,15,43,23.20
2017,05,22,15,44,23.20
2017,05,22,15,45,23.20
2017,05,22,15,46,23.20
2017,05,22,15,47,23.30
2017,05,22,15,48,23.10
2017,05,22,15,49,22.80
2017,05,22,15,50,22.50
2017,05,22,15,51,22.20
2017,05,22,15,52,22.00
2017,05,22,15,53,21.90
2017,05,22,15,54,21.80
2017,05,22,15,55,21.80
2017,05,22,15,56,21.80
2017,05,22,15,57,21.70
2017,05,22,15,58,21.70
2017,05,22,15,59,21.60
2017,05,22,16,00,21.50
2017,05,22,16,01,21.30
2017,05,22,16,02,21.20
2017,05,22,16,03,21.10
2017,05,22,16,04,21.00
2017,05,22,16,05,21.00
2017,05,22,16,06,21.00
2017,05,22,16,07,21.00
2017,05,22,16,08,21.00
2017,05,22,16,09,21.00
2017,05,22,16,10,20.90
2017,05,22,16,11,20.80
2017,05,22,16,12,20.70
2017,05,22,16,13,20.60
2017,05,22,16,14,20.50
2017,05,22,16,15,20.40
2017,05,22,16,16,20.40
2017,05,22,16,17,20.40
2017,05,22,16,18,20.40
2017,05,22,16,19,20.50
2017,05,22,16,20,20.40
2017,05,22,16,21,20.30
2017,05,22,16,22,20.20
2017,05,22,16,23,20.10
2017,05,22,16,24,20.10
2017,05,22,16,25,20.10
2017,05,22,16,26,20.10
2017,05,22,16,27,20.20
2017,05,22,16,28,20.30
2017,05,22,16,29,20.40
2017,05,22,16,30,20.50
2017,05,22,16,31,20.60
2017,05,22,16,32,20.70
2017,05,22,16,33,20.70
2017,05,22,16,34,20.80
2017,05,22,16,35,20.90
2017,05,22,16,36,20.90
2017,05,22,16,37,21.10
2017,05,22,16,38,21.20
2017,05,22,16,39,21.40
2017,05,22,16,40,21.50
2017,05,22,16,41,21.60
2017,05,22,16,42,21.70
2017,05,22,16,43,21.70
2017,05,22,16,44,21.70
2017,05,22,16,45,21.80
2017,05,22,16,46,21.90
2017,05,22,16,47,21.90
2017,05,22,16,48,21.90
2017,05,22,16,49,22.10
2017,05,22,16,50,22.10
2017,05,22,16,51,22.30
2017,05,22,16,52,22.30
2017,05,22,16,53,22.40
2017,05,22,16,54,22.50
2017,05,22,16,55,22.50
2017,05,22,16,56,22.60
2017,05,22,16,57,22.60
2017,05,22,16,58,22.50
2017,05,22,16,59,22.40
2017,05,22,17,00,22.30
2017,05,22,17,01,22.30
2017,05,22,17,02,22.30
2017,05,22,17,03,22.20
2017,05,22,17,04,22.10
2017,05,22,17,05,22.00
2017,05,22,17,06,21.90
2017,05,22,17,07,21.80
2017,05,22,17,08,21.70
2017,05,22,17,09,21.60
2017,05,22,17,10,21.60
2017,05,22,17,11,21.50
2017,05,22,17,12,21.50
2017,05,22,17,13,21.50
2017,05,22,17,14,21.60
2017,05,22,17,15,21.60
2017,05,22,17,16,21.70
2017,05,22,17,17,21.80
2017,05,22,17,18,21.90
2017,05,22,17,19,22.00